#timestamp,LO_Frequency,Hit 
1501470015.9,286047013.3,N
1501470035.7,286047011.4,N
1501470055.6,286047012.8,N
1501470075.4,286047012.5,N
1501470095.2,286047012.6,N
1501470115.1,286047015.0,N
1501470116.0,286047015.0,N
1501470135.8,286047015.4,N
1501470155.6,286047013.7,N
1501470175.5,286047013.9,N
1501470195.3,286047011.6,N
1501470215.1,286047013.0,N
1501470235.9,286047014.8,N
1501470255.7,286047010.9,N
1501470275.5,286047010.7,N
1501470295.4,286047009.0,N
1501470315.2,286047008.7,N
1501470335.0,286047008.2,N
1501470335.9,286047008.2,N
1501470355.8,286047009.4,N
1501470375.6,286047013.5,N
1501470395.4,286047011.4,N
1501470415.2,286047013.2,N
1501470435.1,286047012.6,N
1501470436.0,286047012.6,N
1501470455.8,286047015.3,N
1501470475.6,286047013.5,N
1501470495.5,286047010.0,N
1501470515.3,286047010.3,N
1501470535.1,286047009.6,N
1501470555.9,286047008.4,N
1501470575.7,286047010.7,N
1501470595.5,286047010.2,N
1501470615.4,286047010.6,N
1501470635.2,286047009.9,N
1501470655.0,286047012.2,N
1501470655.9,286047012.2,N
1501470675.8,286047010.2,N
1501470695.6,286047013.6,N
1501470715.4,286047014.3,N
1501470735.3,286047014.3,N
1501470755.1,286047011.8,N
1501470756.0,286047011.8,N
1501470775.8,286047010.7,N
1501470795.7,286047012.1,N
1501470815.5,286047012.4,N
1501470835.3,286047015.5,N
1501470855.2,286047014.7,N
1501470875.9,286047014.8,N
1501470895.7,286047015.9,N
1501470915.5,286047016.6,N
1501470935.4,286047017.0,N
1501470955.2,286047016.2,N
1501470975.0,286047012.6,N
1501470975.9,286047012.6,N
1501470995.8,286047012.9,N
1501471015.6,286047015.1,N
1501471035.4,286047013.6,N
1501471055.3,286047011.4,N
1501471075.1,286047011.6,N
1501471076.0,286047011.6,N
1501471095.8,286047013.8,N
1501471115.4,286047011.4,N
1501471135.2,286047010.9,N
1501471155.1,286047014.9,N
1501471156.0,286047014.9,N
1501471175.8,286047015.0,N
1501471195.6,286047013.9,N
1501471215.5,286047013.2,N
1501471235.3,286047013.0,N
1501471255.1,286047015.2,N
1501471275.9,286047013.3,N
1501471295.7,286047012.5,N
1501471315.5,286047015.1,N
1501471335.3,286047012.2,N
1501471355.2,286047013.9,N
1501471375.0,286047013.6,N
1501471375.9,286047013.6,N
1501471395.7,286047015.5,N
1501471415.6,286047014.6,N
1501471435.4,286047014.9,N
1501471455.2,286047016.1,N
1501471475.1,286047015.6,N
1501471476.0,286047015.6,N
1501471495.8,286047016.1,N
1501471515.6,286047016.9,N
1501471535.5,286047016.2,N
1501471555.3,286047019.8,N
1501471575.1,286047019.8,N
1501471595.9,286047016.2,N
1501471615.7,286047016.1,N
1501471635.5,286047017.1,N
1501471655.4,286047015.7,N
1501471675.2,286047020.0,N
1501471695.0,286047018.5,N
1501471695.9,286047018.5,N
1501471715.8,286047018.6,N
1501471735.6,286047018.2,N
1501471755.4,286047017.9,N
1501471775.2,286047019.5,N
1501471795.7,286047020.2,N
1501471815.5,286047017.6,N
1501471835.4,286047017.6,N
1501471855.2,286047017.6,N
1501471875.0,286047017.7,N
1501471875.9,286047017.7,N
1501471895.8,286047017.4,N
1501471915.6,286047019.0,N
1501471935.4,286047020.2,N
1501471955.3,286047020.4,N
1501471975.1,286047021.9,N
1501471976.0,286047021.9,N
1501471995.8,286047018.5,N
1501472015.7,286047014.2,N
1501472035.1,286047017.2,N
1501472036.0,286047017.2,N
1501472055.8,286047016.8,N
1501472075.2,286047014.9,N
1501472095.0,286047015.5,N
1501472096.0,286047015.5,N
1501472115.8,286047012.6,N
1501472135.6,286047015.1,N
1501472155.4,286047014.4,N
1501472175.3,286047016.3,N
1501472195.1,286047018.5,N
1501472215.8,286047021.3,N
1501472235.7,286047023.6,N
1501472255.5,286047021.2,N
1501472275.3,286047021.3,N
1501472295.2,286047021.2,N
1501472315.9,286047022.2,N
1501472335.7,286047023.5,N
1501472355.6,286047023.2,N
1501472375.4,286047025.1,Y
1501472395.2,286047012.1,N
1501472415.1,286047007.8,N
1501472416.0,286047007.8,N
1501472435.8,286047007.7,N
1501472455.6,286047008.5,N
1501472475.5,286047008.9,N
1501472495.3,286047008.2,N
1501472515.1,286047010.8,N
1501472535.9,286047010.3,N
1501472555.7,286047008.8,N
1501472575.5,286047008.3,N
1501472595.4,286047008.5,N
1501472615.2,286047003.5,N
1501472635.0,286047004.4,N
1501472635.9,286047004.4,N
1501472655.7,286047001.7,N
1501472675.6,286046999.7,N
1501472695.4,286047001.6,N
1501472715.2,286047003.0,N
1501472735.1,286047004.8,N
1501472736.0,286047004.8,N
1501472755.8,286047007.0,N
1501472775.6,286047003.4,N
1501472795.5,286047003.2,N
1501472815.3,286047003.5,N
1501472835.1,286047003.9,N
1501472855.9,286047002.9,N
1501472875.7,286047004.5,N
1501472895.5,286047006.7,N
1501472915.4,286047012.3,N
1501472935.2,286047008.3,N
1501472955.0,286047005.1,N
1501472955.9,286047005.1,N
1501472975.8,286047005.0,N
1501472995.6,286047010.6,N
1501473015.4,286047008.0,N
1501473035.3,286047007.9,N
1501473055.1,286047010.2,N
1501473056.0,286047010.2,N
1501473075.8,286047007.1,N
1501473095.7,286047005.5,N
1501473115.5,286047005.4,N
1501473135.3,286047006.0,N
1501473155.2,286047002.9,N
1501473175.9,286047003.6,N
1501473195.7,286047004.9,N
1501473215.6,286047006.1,N
1501473235.4,286047007.1,N
1501473255.2,286047007.2,N
1501473275.0,286047008.7,N
1501473276.0,286047008.7,N
1501473295.8,286047007.4,N
1501473315.6,286047006.2,N
1501473335.4,286047008.8,N
1501473355.3,286047006.7,N
1501473375.1,286047008.8,N
1501473395.8,286047005.4,N
1501473415.7,286047003.6,N
1501473435.5,286047004.3,N
1501473455.3,286047004.3,N
1501473475.2,286047004.0,N
1501473495.9,286047005.9,N
1501473515.7,286047005.6,N
1501473535.6,286047004.7,N
1501473555.4,286047006.0,N
1501473575.2,286047002.9,N
1501473595.1,286047004.5,N
1501473596.0,286047004.5,N
